Location: Boiro
(42.6475°N, 8.8834°W)
Time: 01:46:57
(UTC+02:00)

LINGQIAO VIDEO B - Pass Details

Date: 04 July 2022
Orbit: 636 x 662 km, 97.7° (Epoch: 14 August)

Event Time Altitude Azimuth Distance (km) Brightness Sun altitude
Rises 22:45:06 0° 168° (SSE) 2,965 ? -5.1°
Reaches altitude 10° 22:47:18 10° 169° (S) 2,062 ? -5.4°
Maximum altitude 22:51:49 82° 256° (WSW) 672 ? -6.1°
Drops below altitude 10° 22:56:24 10° 346° (NNW) 2,089 ? -6.7°
Sets 22:58:38 0° 347° (NNW) 3,008 ? -7.0°
